Cape Girardeau, MO

3:11 PM CDT on June 26, 2017 (GMT -0500)
Cape Girardeau Regional

Weather History for KCGI - June, 2013

Change the Weather History Date:

Saturday, June 8, 2013

  Actual Average Record
Temperature  
Mean Temperature 69 °F 74 °F  
Max Temperature 81 °F 85 °F 97 °F (1963)
Min Temperature 57 °F 62 °F 51 °F (2000)
Degree Days  
Heating Degree Days 0 0  
Month to date heating degree days 0 1  
Since 1 June heating degree days 0 1  
Since 1 July heating degree days 4359 4387  
Cooling Degree Days 4 9  
Month to date cooling degree days 40 62  
Year to date cooling degree days 211 214  
Since 1 June cooling degree days 40 62  
Growing Degree Days 18 (Base 50)    
Moisture  
Dew Point 58 °F    
Average Humidity 70    
Maximum Humidity 97    
Minimum Humidity 42    
Precipitation  
Precipitation 0.00 in 0.13 in 2.45 in (1971)
Month to date precipitation 3.44 1.04  
Year to date precipitation 19.61 22.14  
Sea Level Pressure  
Sea Level Pressure 29.94 in    
Wind  
Wind Speed 5 mph (SSW)    
Max Wind Speed 10 mph    
Max Gust Speed 15 mph    
Visibility 9 miles    
Events      
T = Trace of Precipitation, MM = Missing Value Source: NWS Daily Summary

Daily Weather History Graph

Daily Weather History Graph

Search for Another Location

Airport or City:

Trip Planner

Search our weather history database for the weather conditions in past years. The results will help you decide how hot, cold, wet, or windy it might be!

Date:

Astronomy

Jun. 08, 2013 Rise Set
Actual Time 5:37 AM CDT 8:17 PM CDT
Civil Twilight 5:07 AM CDT 8:48 PM CDT
Nautical Twilight 4:28 AM CDT 9:26 PM CDT
Astronomical Twilight 3:45 AM CDT 10:09 PM CDT
Moon 5:44 AM CDT (6/8) 8:21 PM CDT (6/8)
Length of Visible Light 15h 41m
Length of Day
14h 39m
New Moon, 0% of the Moon is Illuminated
Jun 8
New Moon
Jun 16
First Quarter
Jun 23
Full
Jun 29
Last Quarter
Jul 8
New

Hourly Weather History & Observations

Time (CDT) Temp. Heat Index Dew Point Humidity Pressure Visibility Wind Dir Wind Speed Gust Speed Precip Events Conditions
12:53 AM 62.1 °F - 57.9 °F 86% 29.90 in 10.0 mi SW 3.5 mph - N/A   Clear
1:53 AM 61.0 °F - 57.9 °F 90% 29.90 in 9.0 mi Calm Calm - N/A   Clear
2:53 AM 60.1 °F - 57.0 °F 90% 29.90 in 8.0 mi Calm Calm - N/A   Clear
3:53 AM 57.9 °F - 55.9 °F 93% 29.90 in 8.0 mi Calm Calm - N/A   Clear
4:53 AM 57.9 °F - 55.9 °F 93% 29.91 in 6.0 mi WSW 4.6 mph - N/A   Clear
5:53 AM 57.0 °F - 55.9 °F 96% 29.93 in 4.0 mi West 4.6 mph - N/A   Clear
6:53 AM 61.0 °F - 59.0 °F 93% 29.96 in 4.0 mi Calm Calm - N/A   Clear
7:53 AM 66.0 °F - 59.0 °F 78% 29.97 in 10.0 mi WNW 5.8 mph - N/A   Clear
8:53 AM 69.1 °F - 59.0 °F 70% 29.99 in 10.0 mi West 3.5 mph - N/A   Clear
9:53 AM 73.9 °F - 57.9 °F 57% 29.99 in 10.0 mi Calm Calm - N/A   Clear
10:53 AM 75.9 °F - 57.0 °F 52% 29.97 in 10.0 mi SW 4.6 mph - N/A   Clear
11:53 AM 78.1 °F - 57.0 °F 48% 29.97 in 10.0 mi WSW 4.6 mph - N/A   Partly Cloudy
12:53 PM 75.9 °F - 55.0 °F 48% 29.96 in 10.0 mi WSW 6.9 mph - N/A   Mostly Cloudy
1:53 PM 78.1 °F - 55.9 °F 46% 29.96 in 10.0 mi SSW 6.9 mph - N/A   Mostly Cloudy
2:53 PM 79.0 °F - 55.9 °F 45% 29.95 in 10.0 mi SSW 4.6 mph - N/A   Overcast
3:53 PM 80.1 °F 80.1 °F 55.0 °F 42% 29.94 in 10.0 mi SSW 9.2 mph - N/A   Mostly Cloudy
4:53 PM 80.1 °F 80.2 °F 55.9 °F 43% 29.94 in 10.0 mi WSW 8.1 mph - N/A   Clear
5:53 PM 79.0 °F - 55.9 °F 45% 29.93 in 10.0 mi SSW 6.9 mph - N/A   Clear
6:53 PM 77.0 °F - 57.9 °F 52% 29.93 in 10.0 mi South 3.5 mph - N/A   Overcast
7:53 PM 73.9 °F - 61.0 °F 64% 29.94 in 10.0 mi SSE 4.6 mph - N/A   Mostly Cloudy
8:53 PM 70.0 °F - 60.1 °F 71% 29.94 in 10.0 mi SSE 4.6 mph - N/A   Overcast
9:53 PM 66.9 °F - 60.1 °F 79% 29.95 in 10.0 mi SE 5.8 mph - N/A   Mostly Cloudy
10:53 PM 64.9 °F - 60.1 °F 84% 29.96 in 10.0 mi SE 4.6 mph - N/A   Mostly Cloudy
11:53 PM 68.0 °F - 60.1 °F 76% 29.97 in 10.0 mi SE 8.1 mph - N/A   Mostly Cloudy